Regional Weather Roundup
Issued by NWS

Home | Current Version | Previous Version | Graphics & Text | Print | Product List | Glossary Off
Versions: 1 2 3 4 5 6 7 8 9 10 11 12 13 14 15 16 17 18 19 20 21 22 23 24 25 26 27 28 29 30 31 32 33 34 35 36 37 38 39 40 41 42 43 44 45 46 47 48 49 50

000
ASUS43 KDMX 290003
RWRIA

WEATHER ROUNDUP FOR IOWA
NATIONAL WEATHER SERVICE DES MOINES IA
700 PM CDT THU APR 28 2016

NOTE: "FAIR" INDICATES FEW OR NO CLOUDS BELOW 12,000 FEET WITH NO
SIGNIFICANT WEATHER AND/OR OBSTRUCTIONS TO VISIBILITY.

* - THESE STATIONS ARE NOT NWS STATIONS...THUS NOT UNDER NWS
QUALITY CONTROL.  THEY ALSO DO NOT REPORT WEATHER SUCH
AS PRECIPITATION OR FOG.

IAZ001>003-012>014-020>022-031>034-043>046-290100-
   NORTHWEST IOWA

CITY           SKY/WX    TMP DP  RH WIND       PRES   REMARKS
CARROLL *      CLOUDY    46  43  87 NW10      30.01R
CHEROKEE *     CLOUDY    43  41  92 N5        30.03R
DENISON *      CLOUDY    45  41  87 NW10      30.01R
LE MARS *      CLOUDY    45  39  81 N6        30.06R
ORANGE CITY *  CLOUDY    41  37  87 N5        30.04R
SHELDON *      CLOUDY    41  39  93 N10       30.03R
SIOUX CITY     CLOUDY    45  39  79 NW7       30.06R
6HR MIN TEMP:  45; 6HR MAX TEMP:  48;

SPENCER        CLOUDY    42  37  82 N10       30.02S
6HR MIN TEMP:  42; 6HR MAX TEMP:  44; 6HR PCP: TRACE;

STORM LAKE *   CLOUDY    43  39  87 N7        30.02R
$$

IAZ055>058-069>071-079>083-090>094-290100-
   SOUTHWEST IOWA

CITY           SKY/WX    TMP DP  RH WIND       PRES   REMARKS
ATLANTIC *     CLOUDY    48  43  81 NW12      30.02R
AUDUBON *      CLOUDY    46  43  87 NW7       30.03R
CLARINDA *       N/A    N/A N/A N/A MISG        N/A
COUNCIL BLFS *   N/A     48  43  81 N9        30.01F
CRESTON *      CLOUDY    50  45  81 NW10G18   30.00S
HARLAN  *      CLOUDY    46  43  87 NW9G16    30.06R
LAMONI         PTSUNNY   53  45  74 NW15      29.98R
6HR MIN TEMP:  50; 6HR MAX TEMP:  53;

RED OAK *      CLOUDY    50  43  76 N12       30.01S
SHENANDOAH *   CLOUDY    52  45  76 N9        30.01F
$$

IAZ047>049-059>061-072>074-084-290100-
   CENTRAL IOWA

CITY           SKY/WX    TMP DP  RH WIND       PRES   REMARKS
AMES           CLOUDY    50  46  86 N12       29.98R
6HR MIN TEMP:  50; 6HR MAX TEMP:  57; 6HR PCP: TRACE;

ANKENY *       CLOUDY    50  50 100 NW12      29.97R FOG
BOONE *        CLOUDY    48  46  93 N12       29.97R
CHARITON *     CLOUDY    54  46  76 W10       29.97R
DES MOINES     DRIZZLE   51  47  86 NW13      29.98R FOG
6HR MIN TEMP:  51; 6HR MAX TEMP:  60; 6HR PCP:  0.01;

GRINNELL*      DRIZZLE   51  48  89 NW6       29.96R
KNOXVILLE *    CLOUDY    52  46  82 W16G24    29.95R
MARSHALLTOWN   CLOUDY    49  47  93 N12       29.96R
6HR MIN TEMP:  49; 6HR MAX TEMP:  54; 6HR PCP:  0.06;

NEWTON *       CLOUDY    52  52 100 N12       29.95R
PELLA *        RAIN      52  48  87 W15       29.96R
$$

IAZ004>006-015-016-023>025-035-036-290100-
   NORTH CENTRAL IOWA

CITY           SKY/WX    TMP DP  RH WIND       PRES   REMARKS
ALGONA *       CLOUDY    43  41  93 N9        30.01R
CLARION *      CLOUDY    46  45  93 N7        30.00R
ESTHERVILLE    CLOUDY    40  38  93 N8        30.02R WCI  34
6HR MIN TEMP:  40; 6HR MAX TEMP:  41; 6HR PCP:  0.03;

FORT DODGE *   CLOUDY    46  39  76 N5        30.00R
MASON CITY     CLOUDY    44  42  93 NE10      30.00R
6HR MIN TEMP:  43; 6HR MAX TEMP:  45; 6HR PCP:  0.04;

FOREST CITY *  CLOUDY    43  41  93 NE6       30.01R
WEBSTER CITY * CLOUDY    48  45  87 N10       29.97R
IOWA FALLS *   CLOUDY    48  45  88 NE7       29.99R
$$

IAZ007>011-017>019-026>030-037>042-050>054-066-290100-
   NORTHEAST IOWA

CITY           SKY/WX    TMP DP  RH WIND       PRES   REMARKS
CEDAR RAPIDS   CLOUDY    49  48  97 N12       29.94R
6HR MIN TEMP:  50; 6HR MAX TEMP:  54; 6HR PCP:  0.08;

CHARLES CITY * CLOUDY    43  43 100 NE9       29.99S FOG
CLINTON *      CLOUDY    49  48  97 NE8       29.96R FOG
DECORAH *      CLOUDY    41  41 100 VRB3      29.98S FOG
DUBUQUE        CLOUDY    44  43  96 NE9       29.96R FOG
6HR MIN TEMP:  44; 6HR MAX TEMP:  46; 6HR PCP:  0.08;

MONTICELLO *   CLOUDY    46  45  93 NE5G12    29.96R
OELWEIN *      CLOUDY    45  45 100 NE9       29.98R
WATERLOO       CLOUDY    47  43  86 NE10      29.97R
6HR MIN TEMP:  47; 6HR MAX TEMP:  50; 6HR PCP:  0.15;

$$

IAZ064-065-067-068-078-290100-
   EAST CENTRAL IOWA

CITY           SKY/WX    TMP DP  RH WIND       PRES   REMARKS
DAVENPORT      CLOUDY    53  49  86 CALM      29.95S
6HR MIN TEMP:  50; 6HR MAX TEMP:  54; 6HR PCP:  0.02;

IOWA CITY      CLOUDY    54  47  77 NW6       29.95R
6HR MIN TEMP:  50; 6HR MAX TEMP:  56; 6HR PCP: TRACE;

MT. PLEASANT * CLOUDY    59  50  72 W12       29.95R
MUSCATINE *    CLOUDY    55  48  76 N3        29.95R
QUAD CITIES    CLOUDY    54  49  83 CALM      29.94R
6HR MIN TEMP:  52; 6HR MAX TEMP:  57; 6HR PCP:  0.01;

$$

IAZ062-063-075>077-085>089-095>099-290100-
   SOUTHEAST IOWA

CITY           SKY/WX    TMP DP  RH WIND       PRES   REMARKS
BURLINGTON     CLOUDY    57  48  72 W7        29.94R
6HR MIN TEMP:  55; 6HR MAX TEMP:  59;

FAIRFIELD *    CLOUDY    55  48  76 W8        29.95R
FORT MADISON * CLOUDY    57  48  72 W8        29.96R
KEOKUK *       CLOUDY    59  46  63 W8        29.95R
OSKALOOSA *    CLOUDY    54  48  82 W12       29.96R
OTTUMWA        CLOUDY    54  46  74 W12       29.95R
6HR MIN TEMP:  52; 6HR MAX TEMP:  58; 6HR PCP: TRACE;

WASHINGTON *   CLOUDY    55  50  82 W7G13     29.95R
$$

ABBREVIATIONS USED IN REMARKS
   TC - TEMPERATURES IN CELSIUS
  WCI - WIND CHILL INDEX
   HX - HEAT INDEX
  VSB - VISIBILITY
$$




USA.gov is the U.S. government's official web portal to all federal, state and local government web resources and services.